Location: ????????
(56.1167°N, 38.6333°E)
Time: 20:53:28
(UTC+00:00)

Cosmos 2026 Rocket - Pass Details

Date: 18 November 2025
Orbit: 937 x 1000 km, 82.9° (Epoch: 06 December)

Event Time Altitude Azimuth Distance (km) Brightness Sun altitude
Rises 16:26:39 0° 347° (NNW) 3,615 7.2 -26.5°
Reaches altitude 10° 16:29:09 10° 344° (NNW) 2,670 6.5 -26.9°
Maximum altitude 16:35:09 65° 265° (W) 1,041 4.3 -27.7°
Drops below altitude 10° 16:41:12 10° 185° (S) 2,681 6.3 -28.5°
Sets 16:43:43 0° 182° (S) 3,631 6.9 -28.9°
